Franklin, NC

10:08 AM EDT on September 26, 2017 (GMT -0400)
Franklin

Weather History for K1A5 - January, 2011

Change the Weather History Date:

Wednesday, January 19, 2011

  Actual Average (KTOC) Record (KTOC)
Temperature  
Mean Temperature 39 °F -  
Max Temperature 47 °F 52 °F 66 °F (2015)
Min Temperature 30 °F 33 °F 18 °F (2016)
Degree Days  
Heating Degree Days 26    
Moisture  
Dew Point 34 °F    
Average Humidity 80    
Maximum Humidity 93    
Minimum Humidity 54    
Precipitation  
Precipitation 0.01 in - - ()
Sea Level Pressure  
Sea Level Pressure 29.92 in    
Wind  
Wind Speed 3 mph (North)    
Max Wind Speed 15 mph    
Max Gust Speed 22 mph    
Visibility 8 miles    
Events Fog    
Averages and records for this station are not official NWS values.
T = Trace of Precipitation, MM = Missing Value Source: NWS Daily Summary

Daily Weather History Graph

Daily Weather History Graph

Search for Another Location

Airport or City:

Trip Planner

Search our weather history database for the weather conditions in past years. The results will help you decide how hot, cold, wet, or windy it might be!

Date:

Astronomy

Jan. 19, 2011 Rise Set
Actual Time 7:40 AM EST 5:48 PM EST
Civil Twilight 7:13 AM EST 6:15 PM EST
Nautical Twilight 6:42 AM EST 6:46 PM EST
Astronomical Twilight 6:11 AM EST 7:17 PM EST
Moon 5:54 PM EST (1/19) 7:18 AM EST (1/19)
Length of Visible Light 11h 02m
Length of Day
10h 08m
Full, 100% of the Moon is Illuminated
Jan 19
Full
Jan 19
Full
Jan 26
Last Quarter
Feb 2
New
Feb 11
First Quarter

Hourly Weather History & Observations

Time (EST) Temp. Windchill Dew Point Humidity Pressure Visibility Wind Dir Wind Speed Gust Speed Precip Events Conditions
12:20 AM 36.7 °F - 34.9 °F 93% 29.82 in 0.5 mi Calm Calm - N/A Fog Fog
12:40 AM 37.2 °F - 35.4 °F 93% 29.82 in 0.5 mi Calm Calm - N/A Fog Fog
1:00 AM 36.5 °F - 34.7 °F 93% 29.82 in 0.5 mi Calm Calm - N/A Fog Fog
1:20 AM 36.5 °F - 34.7 °F 93% 29.82 in 0.2 mi Calm Calm - N/A Fog Fog
1:40 AM 36.7 °F - 34.9 °F 93% 29.82 in 0.2 mi Calm Calm - N/A Fog Fog
2:00 AM 36.7 °F - 34.9 °F 93% 29.82 in 0.5 mi Calm Calm - N/A Fog Fog
2:40 AM 36.5 °F - 34.7 °F 93% 29.82 in 0.8 mi Calm Calm - N/A   Overcast
3:00 AM 36.7 °F - 34.9 °F 93% 29.82 in 0.8 mi Calm Calm - N/A   Overcast
3:40 AM 35.8 °F - 34.0 °F 93% 29.82 in 0.5 mi Calm Calm - N/A Fog Fog
4:00 AM 36.0 °F - 34.2 °F 93% 29.82 in 0.5 mi Calm Calm - N/A Fog Fog
4:20 AM 36.0 °F - 34.2 °F 93% 29.83 in 0.8 mi Calm Calm - N/A   Drizzle
4:40 AM 36.1 °F - 34.3 °F 93% 29.83 in 0.5 mi Calm Calm - N/A Fog Fog
5:00 AM 36.1 °F - 34.3 °F 93% 29.82 in 1.0 mi Calm Calm - N/A   Overcast
5:20 AM 36.3 °F 33.7 °F 34.5 °F 93% 29.84 in 2.0 mi West 3.5 mph - N/A   Overcast
5:40 AM 36.3 °F - 34.5 °F 93% 29.84 in 4.0 mi Calm Calm - N/A   Overcast
6:00 AM 39.0 °F 36.8 °F 37.2 °F 93% 29.84 in 10.0 mi North 3.5 mph - N/A   Overcast
6:20 AM 41.0 °F 39.0 °F 39.2 °F 93% 29.85 in 10.0 mi North 3.5 mph - N/A   Overcast
6:40 AM 41.0 °F - 39.2 °F 93% 29.85 in 10.0 mi Calm Calm - N/A   Overcast
7:00 AM 41.2 °F 39.2 °F 39.4 °F 93% 29.85 in 10.0 mi North 3.5 mph - N/A   Overcast
7:20 AM 41.2 °F - 39.2 °F 93% 29.85 in 10.0 mi Calm Calm - N/A   Overcast
7:40 AM 39.7 °F 37.6 °F 37.8 °F 93% 29.86 in 10.0 mi North 3.5 mph - N/A   Overcast
8:00 AM 41.0 °F - 39.2 °F 93% 29.87 in 10.0 mi Calm Calm - N/A   Overcast
8:20 AM 41.2 °F 36.0 °F 39.0 °F 92% 29.88 in 10.0 mi North 8.1 mph - N/A   Overcast
8:40 AM 41.4 °F 35.2 °F 38.3 °F 89% 29.89 in 10.0 mi North 10.4 mph - N/A   Overcast
9:00 AM 41.9 °F 38.2 °F 37.4 °F 84% 29.91 in 10.0 mi North 5.8 mph - N/A   Overcast
9:20 AM 42.1 °F 36.6 °F 36.9 °F 82% 29.91 in 10.0 mi North 9.2 mph - N/A   Mostly Cloudy
10:00 AM 44.8 °F 40.4 °F 37.9 °F 77% 29.93 in 10.0 mi North 8.1 mph - N/A   Scattered Clouds
10:20 AM 44.6 °F 38.8 °F 37.6 °F 76% 29.94 in 10.0 mi North 11.5 mph - N/A   Scattered Clouds
10:40 AM 44.8 °F 39.4 °F 37.2 °F 75% 29.94 in 10.0 mi North 10.4 mph - N/A   Clear
11:00 AM 44.8 °F 39.9 °F 37.0 °F 74% 29.94 in 10.0 mi North 9.2 mph - N/A   Clear
11:20 AM 45.0 °F 40.6 °F 36.5 °F 72% 29.94 in 10.0 mi North 8.1 mph - N/A   Clear
11:40 AM 45.9 °F 40.4 °F 36.3 °F 69% 29.94 in 10.0 mi North 11.5 mph - N/A   Clear
12:00 PM 45.9 °F 41.2 °F 36.5 °F 70% 29.95 in 10.0 mi North 9.2 mph - N/A   Scattered Clouds
12:20 PM 45.3 °F 38.7 °F 35.6 °F 69% 29.95 in 10.0 mi North 15.0 mph - N/A   Scattered Clouds
12:40 PM 44.6 °F 38.8 °F 35.2 °F 70% 29.95 in 10.0 mi North 11.5 mph 21.9 mph N/A   Scattered Clouds
1:00 PM 44.4 °F 39.0 °F 34.3 °F 68% 29.94 in 10.0 mi North 10.4 mph 17.3 mph N/A   Clear
1:20 PM 45.7 °F 40.2 °F 34.3 °F 65% 29.93 in 10.0 mi North 11.5 mph - N/A   Clear
1:40 PM 45.5 °F 40.8 °F 33.4 °F 63% 29.93 in 10.0 mi North 9.2 mph - N/A   Clear
2:00 PM 45.9 °F 41.2 °F 33.4 °F 62% 29.93 in 10.0 mi North 9.2 mph - N/A   Clear
2:20 PM 46.4 °F 42.9 °F 32.9 °F 59% 29.93 in 10.0 mi North 6.9 mph - N/A   Clear
2:40 PM 47.1 °F - 33.1 °F 58% 29.93 in 10.0 mi North 6.9 mph - N/A   Clear
3:00 PM 47.3 °F - 32.4 °F 56% 29.92 in 10.0 mi North 3.5 mph - N/A   Clear
3:20 PM 47.8 °F - 32.0 °F 54% 29.93 in 10.0 mi North 6.9 mph - N/A   Clear
3:40 PM 47.1 °F - 32.0 °F 56% 29.93 in 10.0 mi North 6.9 mph - N/A   Clear
4:00 PM 46.9 °F - 32.7 °F 58% 29.94 in 10.0 mi North 8.1 mph - N/A   Clear
4:20 PM 46.4 °F 42.4 °F 32.9 °F 59% 29.95 in 10.0 mi North 8.1 mph - N/A   Clear
4:40 PM 45.3 °F 43.0 °F 32.9 °F 62% 29.96 in 10.0 mi North 4.6 mph - N/A   Clear
5:00 PM 43.9 °F 39.3 °F 32.5 °F 64% 29.98 in 10.0 mi North 8.1 mph - N/A   Clear
5:40 PM 40.3 °F 38.2 °F 31.6 °F 71% 29.99 in 10.0 mi North 3.5 mph - N/A   Clear
6:00 PM 39.2 °F 37.0 °F 31.1 °F 73% 30.00 in 10.0 mi North 3.5 mph - N/A   Clear
6:20 PM 37.8 °F - 30.9 °F 76% 30.01 in 10.0 mi Calm Calm - N/A   Clear
6:40 PM 37.2 °F 34.7 °F 30.6 °F 77% 30.02 in 10.0 mi NW 3.5 mph - N/A   Scattered Clouds
7:00 PM 36.5 °F - 30.2 °F 78% 30.02 in 10.0 mi Calm Calm - N/A   Clear
7:20 PM 36.0 °F - 29.7 °F 78% 30.03 in 10.0 mi Calm Calm - N/A   Clear
7:40 PM 33.1 °F 30.0 °F 28.8 °F 84% 30.03 in 10.0 mi West 3.5 mph - N/A   Clear
8:00 PM 33.1 °F 30.0 °F 29.3 °F 86% 30.04 in 10.0 mi South 3.5 mph - N/A   Clear
8:20 PM 31.8 °F - 28.0 °F 86% 30.04 in 10.0 mi Calm Calm - N/A   Clear
8:40 PM 32.0 °F 28.7 °F 28.8 °F 88% 30.05 in 10.0 mi West 3.5 mph - N/A   Clear
9:00 PM 33.1 °F 26.9 °F 29.1 °F 85% 30.05 in 10.0 mi West 6.9 mph - N/A   Clear
9:20 PM 31.8 °F 28.5 °F 27.5 °F 84% 30.05 in 10.0 mi West 3.5 mph - N/A   Clear
9:40 PM 30.6 °F - 26.4 °F 85% 30.06 in 10.0 mi Calm Calm - N/A   Clear
10:00 PM 29.1 °F - 26.2 °F 89% 30.06 in 10.0 mi Calm Calm - N/A   Clear
10:20 PM 28.2 °F - 25.7 °F 90% 30.06 in 7.0 mi Calm Calm - N/A   Clear
10:40 PM 26.1 °F - 23.5 °F 90% 30.07 in 10.0 mi Calm Calm - N/A   Clear
11:20 PM 25.2 °F - 23.0 °F 91% 30.06 in 10.0 mi Calm Calm - N/A   Clear